Location: Invercargill
(46.4000°S, 168.3500°E)
Time: 14:47:54
(UTC+13:00)

Cosmos 2360 Rocket - Pass Details

Date: 24 January 2019
Orbit: 834 x 845 km, 71.0° (Epoch: 19 February)

Event Time Altitude Azimuth Distance (km) Brightness Sun altitude
Rises 22:43:46 0° 356° (N) 3,401 5.0 -11.0°
Reaches altitude 10° 22:46:18 10° 3° (N) 2,473 4.2 -11.3°
Maximum altitude 22:51:39 43° 72° (ENE) 1,182 2.6 -12.0°
Drops below altitude 10° 22:57:02 10° 142° (SE) 2,498 4.8 -12.6°
Sets 22:59:36 0° 148° (SSE) 3,439 5.6 -12.9°
